sat.trackr.live / text

‹ back to catalog

ION SCV-021

NORAD 67483 · 2025-276DT

PAYLOAD ACTIVE UNKNOWN

§ Identity

Operator
Country
IT
Launch date
2025-11-28
Launch site
AFWTR
Launch vehicle
Mass (kg)
RCS (m²)

External: N2YO · Heavens-Above · Gunter

§ Orbital elements

Epoch: 2026-05-25T04:37:49.819008Z

Period
96.16 min
Inclination
97.5246°
Eccentricity
0.0011114
Mean motion
14.97480404 rev/d
Perigee alt
567.0 km
Apogee alt
582.4 km
Semi-major
6,952.8 km
B*
9.2800e-5
RAAN
216.4853°
Arg perigee
192.3565°
Mean anomaly
167.7387°
Rev number
1,916

§ Raw data

ION SCV-0211 67483U 25276DT  26145.19293772  .00001026  00000+0  92800-4 0  99992 67483  97.5246 216.4853 0011114 192.3565 167.7387 14.97480404 19168

JSON: /api/v1/satellites/67483 · /tle

For live sub-satellite position, see the globe view (requires WebGL).

§ Visibility from observer

Set your observer location to see the next 7 days of passes ≥ 10°. The values pass through the URL so the page stays shareable.

No JS? Fill the form by hand. The geolocation button needs JavaScript.